This demonstration page uses our WeatherBlox Daily Observations layout. Learn more.

Left ArrowRight Arrow

Hourly Observations for December 17, 2020

Temp ( °F °C ) Dew Point ( °F °C ) Humidity (%) Winds ( mph kmh ) Pressure ( in mb ) Visibility ( mi km ) Precip ( " mm )
12:53 am 00:53 Cloudy 30 -1.1 26 -3.3 85 85 WNW 7 11 30.01 1016 7 11 0.00 0.00
1:02 am 01:02 Cloudy 30 -1.1 26 -3.3 85 85 W 5 7 30.04 1017 7 11 0.00 0.00
1:53 am 01:53 Cloudy 30 -1.1 26 -3.3 85 85 W 8 13 30.02 1017 8 13 0.00 0.00
2:13 am 02:13 Cloudy 30 -1.1 26 -3.3 85 85 W 7 11 30.04 1017 8 13 0.00 0.00
2:53 am 02:53 Cloudy 30 -1.1 26 -3.3 85 85 W 6 9 30.04 1017 8 13 0.00 0.00
3:53 am 03:53 Cloudy 30 -1.1 25 -3.9 82 82 W 6 9 30.05 1018 7 11 0.00 0.00
4:00 am 04:00 Cloudy 30 -1.1 26 -3.3 85 85 W 7 11 30.07 1018 7 11 0.00 0.00
4:22 am 04:22 Cloudy 30 -1.1 26 -3.3 85 85 WNW 8 13 30.07 1018 7 11 0.00 0.00
4:40 am 04:40 Cloudy 30 -1.1 26 -3.3 85 85 WNW 9 15 30.07 1018 7 11 0.00 0.00
4:50 am 04:50 Cloudy 30 -1 27 -3 86 86 WNW 10 17 30.07 1018 7 11 0.00 0.00
4:53 am 04:53 Cloudy 30 -1.1 26 -3.3 85 85 WNW 8 13 30.05 1018 7 11 0.00 0.00
5:53 am 05:53 Cloudy with Mist and Fog 30 -1.1 27 -2.8 88 88 W 3 6 30.07 1018 6 10 0.00 0.00
6:28 am 06:28 Cloudy with Mist and Fog 30 -1.1 26 -3.3 85 85 W 3 6 30.10 1019 6 10 0.00 0.00
6:53 am 06:53 Cloudy with Haze 31 -0.6 26 -3.3 82 82 W 3 6 30.08 1019 6 10 0.00 0.00
7:53 am 07:53 Cloudy with Mist and Fog 31 -0.6 27 -2.8 85 85 WSW 3 6 30.09 1019 6 10 0.00 0.00
8:16 am 08:16 Cloudy with Mist and Fog 31 -0.6 27 -2.8 85 85 W 5 7 30.13 1020 5 8 0.00 0.00
8:35 am 08:35 Cloudy with Mist and Fog 31 -0.6 27 -2.8 85 85 W 5 7 30.13 1020 5 8 0.00 0.00
8:53 am 08:53 Cloudy with Mist and Fog 31 -0.6 27 -2.8 85 85 W 6 9 30.12 1020 5 8 0.00 0.00
9:53 am 09:53 Cloudy with Haze 32 0 27 -2.8 82 82 W 6 9 30.14 1021 5 8 0.00 0.00
10:21 am 10:21 Cloudy with Haze 32 0 27 -2.8 82 82 W 6 9 30.15 1021 5 8 0.00 0.00
10:53 am 10:53 Cloudy with Haze 32 0 27 -2.8 82 82 W 5 7 30.14 1021 5 8 0.00 0.00
11:53 am 11:53 Cloudy with Haze 33 0.6 28 -2.2 82 82 W 9 15 30.14 1021 5 8 0.00 0.00
12:03 pm 12:03 Cloudy with Haze 33 0.6 28 -2.2 82 82 WSW 8 13 30.15 1021 5 8 0.00 0.00
12:53 pm 12:53 Cloudy with Haze 34 1.1 28 -2.2 79 79 W 5 7 30.12 1020 6 10 0.00 0.00
1:53 pm 13:53 Cloudy 33 0.6 27 -2.8 78 78 W 7 11 30.12 1020 7 11 0.00 0.00
2:53 pm 14:53 Cloudy with Haze 33 0.6 27 -2.8 78 78 W 6 9 30.14 1021 6 10 0.00 0.00
3:53 pm 15:53 Cloudy with Haze 33 0.6 27 -2.8 78 78 W 6 9 30.16 1022 5 8 0.00 0.00
4:42 pm 16:42 Cloudy with Light Snow 32 0 27 -2.8 82 82 W 6 9 30.20 1023 3 4 0.00 0.00
4:53 pm 16:53 Cloudy with Light Snow 32 0 27 -2.8 82 82 W 3 6 30.19 1022 2 3 0.00 0.00
5:00 pm 17:00 Cloudy with Light Snow 32 0 28 -2.2 85 85 W 5 7 30.20 1023 2 3 0.00 0.00
5:28 pm 17:28 Cloudy with Light Snow 32 0 28 -2.2 85 85 W 3 6 30.21 1023 3 5 0.01 0.25
5:53 pm 17:53 Cloudy with Light Snow 32 0 28 -2.2 85 85 Calm 30.20 1023 3 5 0.01 0.25
6:53 pm 18:53 Cloudy with Mist and Fog 32 0 29 -1.7 88 88 W 3 6 30.23 1024 4 6 0.00 0.00
7:53 pm 19:53 Cloudy with Light Snow 32 0 28 -2.2 85 85 W 3 6 30.25 1024 4 6 0.00 0.00
8:53 pm 20:53 Cloudy with Haze 32 0 27 -2.8 82 82 WNW 6 9 30.27 1025 6 10 0.00 0.00
9:53 pm 21:53 Cloudy 31 -0.6 27 -2.8 85 85 WNW 6 9 30.27 1025 7 11 0.00 0.00
10:53 pm 22:53 Cloudy 31 -0.6 27 -2.8 85 85 WNW 5 7 30.29 1026 7 11 0.00 0.00
11:53 pm 23:53 Cloudy 31 -0.6 27 -2.8 85 85 W 3 6 30.30 1026 7 11 0.00 0.00

Powered by AerisWeather